Retour au catalogue

KAISTSAT 4

ActifScienceSSO
NORAD 27945·PAYLOAD·🇰🇷 South Korea

Lancé Sep 27, 2003 depuis Plesetsk Cosmodrome

Loading…

Prochains Passages (prochaines 24 heures)

TLE

FraisSource: Space-Track

Époque: Sep 14, 2026, 11:22 UTC

1 27945U 03042G   26257.47389908  .00000270  00000-0  56195-4 0  9995
2 27945  98.3924  68.4083 0012488  60.4646 299.7802 14.67942525227139

Suivez KAISTSAT 4 en temps réel avec AllMySat

Download on the App Store